STARLINK-1903, 46764

Orbit data source: Space-Track

STARLINK-1903, 46764 is a payload satellite owned by SpaceX/Seattle (US) in LEO that was launched on Sat, 24 Oct 2020 UTC via an FALCON 9 launch vehicle from the Air Force Eastern Test Range (AFETR). Payload-class satellites include a variety of spacecraft equipped with specific instruments for various scientific and technological missions. These include communications satellites like Starlink; space stations such as the ISS; scientific satellites like the Hubble; Earth observation satellites from companies like Planet Labs, Umbra, and HawkEye 360; GPS; miniature CubeSats for education and research; and military/defense satellites.

Loading next visibility...
Identifier
46764, 2020-074AB
Orbit
LEO
Country
Flag of USUS
Related business
Manufacturer
SpaceX/Seattle
Mission
Partially operational Commercial Communications
Bus & Motor
STARLINK, Unknown motor
Mass
260 kg wet, ~248 kg dry
Launch date (UTC)
2020-10-24 (5 years ago)
Launch vehicle
FALCON 9
Launch site
Air Force Eastern Test Range (AFETR)
Object type
Payload
Rocket body
Debris
Shape & HBR
Box + 1 Pan, 10.1 m
Radar Cross Section
13.562 m², Large (>1 m²)

Expand to show TLE details & history
Last TLE update: 4 hours ago

TLE from 4 hours ago
0 STARLINK-1903
1 46764U 20074AB  25293.33336806  .00353559  00000-0  15973-2 0  9990
2 46764  53.0133 150.7059 0006817 190.7582 281.1955 15.82478414  5993
Epoch: 2025-10-20T08:00Z
TLE epoch observation values (Epoch: 2025-10-20T08:00:03.000Z)
Latitude
47.98789°
Longitude
125.40992°
Altitude
327.876 km
Speed
7.718 km/s
True Right ascension
18h 17m 50s
True Declination
47° 48' 21"
Sunlit
Object was in daylight at epoch
Visualization orbit readout
Latitude
Unknown
Longitude
Unknown
Altitude
Unknown
Speed
Unknown
Apparent Right ascension
Unknown
Apparent Declination
Unknown
Sunlit
N/A
Visualization observer readout
Local Sidereal Time
07:14:45
Azimuth
Unknown
Elevation
Unknown
Doppler factor
Unknown
Orbital elements
Apogee altitude
328.289 km
Perigee altitude
319.152 km
Semi-major axis
6,701.858 km
Eccentricity
0.00068
Inclination
53.0133°
RAAN
150.7059°
Arg. of periapsis
190.7582°
True anomaly
281.11886°
Mean anomaly
281.1955°
Eccentric anomaly
281.15718°
Mean motion
3.95595 °/min
Orbital period
91 mins
BSTAR
0.0015973
Loading maneuver chart data...
Computing Atmospheric mass density...
Loading historical data...
Loading historical data...
Loading historical data...
Loading historical data...
Loading historical data...
Loading historical data...
Loading historical data...

Documentation

Showing up to 5 results
|